FW8005 Weather Reports


Display with metric or nautical units.
time (UTC)temp
F
wind
direction
speed
MPH
gust
MPH
rain 1hr
in
rain 24hr
in
rain mn
in
humidity
%
barometer
mb
20260507050043 59 0 0.0 1.0 0.00 0.00 0.00 74 1020.8
20260507044541 60 0 0.0 1.0 0.00 0.00 0.00 73 1020.9
20260507043054 60 101 0.0 1.0 0.00 0.00 0.00 73 1020.8
20260507041539 60 134 0.0 2.0 0.00 0.00 0.00 72 1020.7
20260507040043 61 0 0.0 3.0 0.00 0.00 0.00 72 1020.4
20260507034542 62 0 0.0 1.0 0.00 0.00 0.00 71 1020.3
20260507033041 63 0 0.0 2.0 0.00 0.00 0.00 70 1020.0
20260507031544 64 133 0.0 2.0 0.00 0.00 0.00 68 1019.8
20260507030037 64 0 0.0 1.0 0.00 0.00 0.00 68 1019.7
20260507024535 65 0 0.0 1.0 0.00 0.00 0.00 68 1019.6
20260507023035 66 0 0.0 2.0 0.00 0.00 0.00 67 1019.5
20260507021538 66 0 0.0 1.0 0.00 0.00 0.00 66 1019.4
20260507020050 66 109 0.0 3.0 0.00 0.00 0.00 65 1019.3
20260507014538 68 0 0.0 2.0 0.00 0.00 0.00 64 1019.6
20260507013035 69 0 0.0 2.0 0.00 0.00 0.00 63 1019.5
20260507011544 70 207 0.0 4.0 0.00 0.00 0.00 61 1019.4
20260507010037 71 98 0.0 3.0 0.00 0.00 0.00 60 1019.3
20260507004541 72 92 0.0 4.0 0.00 0.00 0.00 61 1019.2
20260507003042 72 166 0.0 2.0 0.00 0.00 0.00 61 1019.2
20260507001604 74 97 0.0 1.0 0.00 0.00 0.00 58 1019.1
20260507000041 74 300 0.0 2.0 0.00 0.00 0.00 58 1019.2
20260506234548 74 0 0.0 3.0 0.00 0.00 0.00 58 1019.2
20260506233040 73 0 0.0 4.0 0.00 0.00 0.00 58 1019.2
20260506231544 72 297 2.0 5.0 0.00 0.00 0.00 59 1019.2
20260506230051 75 341 0.0 3.0 0.00 0.00 0.00 57 1019.4
20260506224536 73 122 0.0 3.0 0.00 0.00 0.00 58 1019.6
20260506223036 72 283 1.0 3.0 0.00 0.00 0.00 59 1019.6
20260506221557 71 249 0.0 5.0 0.00 0.00 0.00 60 1019.7
20260506220040 70 292 1.0 4.0 0.00 0.00 0.00 63 1019.8
20260506214540 70 0 1.0 4.0 0.00 0.00 0.00 62 1019.8
20260506213036 69 321 1.0 7.0 0.00 0.00 0.00 64 1019.8
20260506211538 69 298 0.0 6.0 0.00 0.00 0.00 65 1020.0
20260506210049 68 296 1.0 3.0 0.00 0.00 0.00 66 1020.2
20260506204545 68 274 2.0 6.0 0.00 0.00 0.00 65 1020.2
20260506203038 68 303 2.0 6.0 0.00 0.00 0.00 66 1020.1
20260506201537 67 105 2.0 8.0 0.00 0.00 0.00 67 1020.0
20260506200036 68 64 2.0 5.0 0.00 0.00 0.00 66 1020.2
20260506194541 68 176 0.0 3.0 0.00 0.00 0.00 68 1020.4
20260506193045 64 0 0.0 2.0 0.00 0.00 0.00 72 1020.5
20260506191541 64 0 0.0 3.0 0.00 0.00 0.00 72 1020.6
20260506190039 63 226 0.0 4.0 0.00 0.00 0.00 73 1020.5
20260506184544 62 311 0.0 4.0 0.00 0.00 0.00 76 1020.4
20260506183046 61 306 2.0 6.0 0.00 0.00 0.00 76 1020.3
20260506181549 62 296 1.0 6.0 0.00 0.00 0.00 77 1020.4
20260506180043 61 302 1.0 4.0 0.00 0.00 0.00 78 1020.4
20260506174541 60 327 1.0 5.0 0.00 0.00 0.00 78 1020.6
20260506173044 59 0 0.0 3.0 0.00 0.00 0.00 81 1020.4
20260506171538 59 0 0.0 1.0 0.00 0.00 0.00 82 1020.1
20260506170043 58 0 0.0 1.0 0.00 0.00 0.00 83 1020.4
20260506164555 58 276 0.0 1.0 0.00 0.00 0.00 83 1020.5
20260506163045 58 300 0.0 2.0 0.00 0.00 0.00 84 1020.3
20260506161543 58 285 0.0 2.0 0.00 0.00 0.00 84 1020.1
20260506160043 58 128 0.0 2.0 0.00 0.00 0.00 84 1020.1
20260506154539 57 0 0.0 7.0 0.00 0.00 0.00 86 1019.7
20260506153035 57 316 0.0 3.0 0.00 0.00 0.00 86 1019.5
20260506151544 57 0 0.0 1.0 0.00 0.00 0.00 86 1020.2
20260506150048 57 294 0.0 1.0 0.00 0.00 0.00 87 1020.3
20260506144541 57 0 0.0 1.0 0.00 0.00 0.00 87 1020.1
20260506143039 57 0 0.0 0.0 0.00 0.00 0.00 86 1020.0
20260506141542 57 290 0.0 1.0 0.00 0.00 0.00 86 1019.5
20260506140034 57 0 0.0 0.0 0.00 0.00 0.00 85 1019.3
20260506134541 57 0 0.0 0.0 0.00 0.00 0.00 87 1019.2
20260506133050 56 0 0.0 0.0 0.00 0.00 0.00 88 1019.2
20260506131539 56 0 0.0 1.0 0.00 0.00 0.00 88 1019.2
20260506130035 56 0 0.0 1.0 0.00 0.00 0.00 87 1018.8
20260506124534 57 300 0.0 1.0 0.00 0.00 0.00 87 1018.8
20260506123035 57 0 0.0 1.0 0.00 0.00 0.00 87 1018.7
20260506121535 57 0 0.0 1.0 0.00 0.00 0.00 88 1018.9
20260506120053 57 0 0.0 0.0 0.00 0.00 0.00 88 1018.8
20260506114536 57 295 0.0 1.0 0.00 0.00 0.00 88 1018.6
20260506113036 57 0 0.0 1.0 0.00 0.00 0.00 89 1018.4
20260506111532 57 0 0.0 1.0 0.00 0.00 0.00 88 1018.4
20260506110048 58 0 0.0 0.0 0.00 0.00 0.00 88 1018.2
20260506104550 58 0 0.0 0.0 0.00 0.00 0.00 87 1017.9
20260506103043 58 0 0.0 0.0 0.00 0.00 0.00 87 1017.7
20260506101536 58 0 0.0 0.0 0.00 0.00 0.00 88 1017.5
20260506100035 58 0 0.0 1.0 0.00 0.00 0.00 88 1017.4
20260506094534 58 0 0.0 0.0 0.00 0.00 0.00 88 1017.4
20260506093039 58 0 0.0 0.0 0.00 0.00 0.00 88 1017.2
20260506091539 58 0 0.0 0.0 0.00 0.00 0.00 88 1017.2
20260506090037 58 0 0.0 1.0 0.00 0.00 0.00 88 1017.2
20260506084610 58 0 0.0 1.0 0.00 0.00 0.00 87 1017.1
20260506083037 59 0 0.0 1.0 0.00 0.00 0.00 85 1017.1
20260506081547 60 0 0.0 0.0 0.00 0.00 0.00 82 1017.1
20260506073035 61 0 0.0 0.0 0.00 0.00 0.00 78 1016.8
20260506071535 61 0 0.0 0.0 0.00 0.00 0.00 78 1016.7
20260506061536 60 0 0.0 0.0 0.00 0.00 0.00 79 1016.5